Time,TemperatureF,DewpointF,PressureIn,WindDirection,WindDirectionDegrees,WindSpeedMPH,WindSpeedGustMPH,Humidity,HourlyPrecipIn,Conditions,Clouds,dailyrainin,SoftwareType,DateUTC
2013-04-08 00:02:00,53.0,49.0,29.59,SSW,205,10.0,20.0,86,0.03,,,0.03,,2013-04-08 05:02:00,
2013-04-08 00:12:00,53.0,49.0,29.59,SSW,205,10.0,20.0,86,0.03,,,0.03,,2013-04-08 05:12:00,
2013-04-08 00:22:00,53.0,49.0,29.59,SSW,205,10.0,20.0,86,0.03,,,0.03,,2013-04-08 05:22:00,
2013-04-08 00:32:00,53.0,49.0,29.58,SSE,159,8.0,12.0,87,0.04,,,0.05,,2013-04-08 05:32:00,
2013-04-08 00:42:00,53.0,49.0,29.58,SSE,159,8.0,12.0,87,0.04,,,0.05,,2013-04-08 05:42:00,
2013-04-08 00:52:00,53.0,49.0,29.57,SSE,155,5.0,12.0,86,0.04,,,0.06,,2013-04-08 05:52:00,
2013-04-08 01:02:00,54.0,50.0,29.59,WSW,243,4.0,9.0,85,0.03,,,0.06,,2013-04-08 06:02:00,
2013-04-08 01:12:00,54.0,50.0,29.59,WSW,243,4.0,9.0,85,0.03,,,0.06,,2013-04-08 06:12:00,
2013-04-08 01:22:00,55.0,49.0,29.54,South,169,18.0,30.0,80,0.03,,,0.07,,2013-04-08 06:22:00,
2013-04-08 01:32:00,55.0,49.0,29.59,NW,323,4.0,27.0,79,0.02,,,0.07,,2013-04-08 06:32:00,
2013-04-08 01:42:00,55.0,49.0,29.59,NW,323,4.0,27.0,79,0.02,,,0.07,,2013-04-08 06:42:00,
2013-04-08 01:52:00,55.0,49.0,29.58,SE,132,2.0,9.0,80,0.01,,,0.07,,2013-04-08 06:52:00,
2013-04-08 02:02:00,54.0,49.0,29.60,South,169,3.0,8.0,84,0.01,,,0.07,,2013-04-08 07:02:00,
2013-04-08 02:12:00,54.0,49.0,29.60,South,169,3.0,8.0,84,0.01,,,0.07,,2013-04-08 07:12:00,
2013-04-08 02:22:00,54.0,50.0,29.60,SSE,147,2.0,6.0,85,0.00,,,0.07,,2013-04-08 07:22:00,
2013-04-08 02:33:00,54.0,50.0,29.60,SSE,147,2.0,6.0,85,0.00,,,0.07,,2013-04-08 07:33:00,
2013-04-08 02:42:00,54.0,50.0,29.60,SSE,147,2.0,6.0,85,0.00,,,0.07,,2013-04-08 07:42:00,
2013-04-08 02:52:00,53.0,49.0,29.61,South,178,5.0,8.0,86,0.00,,,0.07,,2013-04-08 07:52:00,
2013-04-08 03:02:00,52.0,49.0,29.61,South,189,7.0,13.0,89,0.00,,,0.07,,2013-04-08 08:02:00,
2013-04-08 03:12:00,52.0,49.0,29.61,South,189,7.0,13.0,89,0.00,,,0.07,,2013-04-08 08:12:00,
2013-04-08 03:22:00,52.0,49.0,29.61,South,189,7.0,13.0,89,0.00,,,0.07,,2013-04-08 08:22:00,
2013-04-08 03:32:00,52.0,49.0,29.61,SSW,196,5.0,11.0,90,0.00,,,0.07,,2013-04-08 08:32:00,
2013-04-08 03:42:00,51.0,48.0,29.60,SW,217,7.0,15.0,91,0.00,,,0.07,,2013-04-08 08:42:00,
2013-04-08 03:52:00,51.0,48.0,29.60,South,184,2.0,10.0,91,0.00,,,0.07,,2013-04-08 08:52:00,
2013-04-08 04:02:00,51.0,49.0,29.60,SW,227,5.0,9.0,92,0.00,,,0.07,,2013-04-08 09:02:00,
2013-04-08 04:12:00,51.0,49.0,29.59,South,178,6.0,12.0,92,0.00,,,0.07,,2013-04-08 09:12:00,
2013-04-08 04:22:00,51.0,49.0,29.59,South,178,6.0,12.0,92,0.00,,,0.07,,2013-04-08 09:22:00,
2013-04-08 04:33:00,50.0,48.0,29.58,SW,217,4.0,9.0,92,0.00,,,0.07,,2013-04-08 09:33:00,
2013-04-08 04:43:00,50.0,48.0,29.58,SW,217,4.0,9.0,92,0.00,,,0.07,,2013-04-08 09:43:00,
2013-04-08 04:53:00,50.0,48.0,29.57,SSW,203,4.0,8.0,92,0.00,,,0.07,,2013-04-08 09:53:00,
2013-04-08 05:03:00,50.0,48.0,29.58,SSW,206,2.0,8.0,92,0.00,,,0.07,,2013-04-08 10:03:00,
2013-04-08 05:13:00,50.0,48.0,29.58,SSW,206,2.0,8.0,92,0.00,,,0.07,,2013-04-08 10:13:00,
2013-04-08 05:23:00,49.0,47.0,29.58,SW,217,3.0,7.0,92,0.00,,,0.07,,2013-04-08 10:23:00,
2013-04-08 05:33:00,49.0,47.0,29.58,SSW,209,5.0,8.0,92,0.00,,,0.07,,2013-04-08 10:33:00,
2013-04-08 05:42:00,49.0,47.0,29.58,SSW,209,5.0,8.0,92,0.00,,,0.07,,2013-04-08 10:42:00,
2013-04-08 05:52:00,49.0,47.0,29.59,SW,221,4.0,12.0,92,0.00,,,0.07,,2013-04-08 10:52:00,
2013-04-08 06:02:00,48.0,46.0,29.59,SW,225,9.0,13.0,93,0.00,,,0.07,,2013-04-08 11:02:00,
2013-04-08 06:12:00,48.0,46.0,29.59,SW,228,9.0,17.0,94,0.00,,,0.07,,2013-04-08 11:12:00,
2013-04-08 06:22:00,48.0,46.0,29.59,SW,228,9.0,17.0,94,0.00,,,0.07,,2013-04-08 11:22:00,
2013-04-08 06:32:00,48.0,46.0,29.59,SW,225,10.0,17.0,94,0.00,,,0.07,,2013-04-08 11:32:00,
2013-04-08 06:42:00,48.0,46.0,29.59,SW,225,10.0,17.0,94,0.00,,,0.07,,2013-04-08 11:42:00,
2013-04-08 06:52:00,48.0,46.0,29.60,SSW,207,7.0,15.0,94,0.00,,,0.07,,2013-04-08 11:52:00,
2013-04-08 07:03:00,48.0,46.0,29.60,SW,221,11.0,22.0,94,0.01,,,0.08,,2013-04-08 12:03:00,
2013-04-08 07:12:00,48.0,46.0,29.60,SW,221,11.0,22.0,94,0.01,,,0.08,,2013-04-08 12:12:00,
2013-04-08 07:23:00,48.0,46.0,29.60,SW,229,8.0,14.0,94,0.01,,,0.08,,2013-04-08 12:23:00,
2013-04-08 07:33:00,47.0,45.0,29.61,SW,227,7.0,13.0,94,0.01,,,0.08,,2013-04-08 12:33:00,
2013-04-08 07:42:00,47.0,45.0,29.61,SW,227,7.0,13.0,94,0.01,,,0.08,,2013-04-08 12:42:00,
2013-04-08 07:52:00,47.0,46.0,29.61,SW,225,5.0,10.0,95,0.01,,,0.08,,2013-04-08 12:52:00,
2013-04-08 08:03:00,47.0,46.0,29.62,WSW,243,4.0,7.0,95,0.00,,,0.08,,2013-04-08 13:03:00,
2013-04-08 08:12:00,47.0,46.0,29.62,WSW,243,4.0,7.0,95,0.00,,,0.08,,2013-04-08 13:12:00,
2013-04-08 08:22:00,48.0,47.0,29.62,SW,227,4.0,8.0,95,0.00,,,0.08,,2013-04-08 13:22:00,
2013-04-08 08:32:00,48.0,47.0,29.62,SSW,210,1.0,7.0,95,0.00,,,0.08,,2013-04-08 13:32:00,
2013-04-08 08:42:00,48.0,47.0,29.62,SSW,210,1.0,7.0,95,0.00,,,0.08,,2013-04-08 13:42:00,
2013-04-08 08:52:00,49.0,48.0,29.62,SSW,210,0.0,4.0,95,0.00,,,0.08,,2013-04-08 13:52:00,
2013-04-08 09:02:00,50.0,49.0,29.62,SW,219,2.0,7.0,95,0.00,,,0.08,,2013-04-08 14:02:00,
2013-04-08 09:12:00,50.0,49.0,29.62,SW,219,2.0,7.0,95,0.00,,,0.08,,2013-04-08 14:12:00,
2013-04-08 09:22:00,50.0,48.0,29.62,SW,224,4.0,10.0,94,0.00,,,0.08,,2013-04-08 14:22:00,
2013-04-08 09:32:00,50.0,48.0,29.63,SW,226,6.0,12.0,94,0.00,,,0.08,,2013-04-08 14:32:00,
2013-04-08 09:42:00,51.0,50.0,29.63,SW,219,3.0,7.0,95,0.00,,,0.08,,2013-04-08 14:42:00,
2013-04-08 09:52:00,51.0,50.0,29.63,SW,219,3.0,7.0,95,0.00,,,0.08,,2013-04-08 14:52:00,
2013-04-08 10:02:00,52.0,51.0,29.63,SW,219,0.0,6.0,96,0.00,,,0.08,,2013-04-08 15:02:00,
2013-04-08 10:12:00,52.0,51.0,29.63,SSW,192,2.0,6.0,95,0.00,,,0.08,,2013-04-08 15:12:00,
2013-04-08 10:22:00,52.0,51.0,29.63,SSW,192,2.0,6.0,95,0.00,,,0.08,,2013-04-08 15:22:00,
2013-04-08 10:33:00,53.0,52.0,29.63,South,171,2.0,6.0,95,0.00,,,0.08,,2013-04-08 15:33:00,
2013-04-08 10:43:00,53.0,52.0,29.63,South,171,2.0,6.0,95,0.00,,,0.08,,2013-04-08 15:43:00,
2013-04-08 10:52:00,53.0,52.0,29.64,South,171,0.0,4.0,95,0.00,,,0.08,,2013-04-08 15:52:00,
2013-04-08 11:03:00,54.0,53.0,29.65,South,179,1.0,5.0,95,0.00,,,0.08,,2013-04-08 16:03:00,
2013-04-08 11:13:00,54.0,53.0,29.65,South,179,1.0,5.0,95,0.00,,,0.08,,2013-04-08 16:13:00,
2013-04-08 11:23:00,54.0,52.0,29.66,South,188,3.0,7.0,94,0.00,,,0.08,,2013-04-08 16:23:00,
2013-04-08 11:32:00,54.0,52.0,29.66,South,188,3.0,7.0,94,0.00,,,0.08,,2013-04-08 16:32:00,
2013-04-08 11:42:00,54.0,52.0,29.66,South,182,3.0,6.0,94,0.00,,,0.08,,2013-04-08 16:42:00,
2013-04-08 11:53:00,54.0,52.0,29.66,SSE,161,0.0,6.0,94,0.00,,,0.08,,2013-04-08 16:53:00,
2013-04-08 12:03:00,55.0,53.0,29.67,SSE,149,0.0,4.0,93,0.00,,,0.08,,2013-04-08 17:03:00,
2013-04-08 12:12:00,56.0,54.0,29.67,SSE,150,0.0,0.0,92,0.00,,,0.08,,2013-04-08 17:12:00,
2013-04-08 12:22:00,56.0,54.0,29.67,SSE,150,0.0,0.0,92,0.00,,,0.08,,2013-04-08 17:22:00,
2013-04-08 12:32:00,57.0,54.0,29.67,SSE,149,0.0,0.0,90,0.00,,,0.08,,2013-04-08 17:32:00,
2013-04-08 12:43:00,57.0,54.0,29.67,SSE,149,0.0,0.0,90,0.00,,,0.08,,2013-04-08 17:43:00,
2013-04-08 12:52:00,57.0,54.0,29.67,South,182,3.0,5.0,89,0.00,,,0.08,,2013-04-08 17:52:00,
2013-04-08 13:02:00,58.0,55.0,29.66,SSW,201,0.0,4.0,90,0.00,,,0.08,,2013-04-08 18:02:00,
2013-04-08 13:12:00,58.0,55.0,29.66,SSW,201,0.0,4.0,90,0.00,,,0.08,,2013-04-08 18:12:00,
2013-04-08 13:22:00,58.0,54.0,29.66,SE,144,1.0,4.0,87,0.00,,,0.08,,2013-04-08 18:22:00,
2013-04-08 13:32:00,58.0,54.0,29.66,SE,142,2.0,8.0,88,0.00,,,0.08,,2013-04-08 18:32:00,
2013-04-08 13:42:00,59.0,55.0,29.66,South,182,5.0,9.0,87,0.00,,,0.08,,2013-04-08 18:42:00,
2013-04-08 13:52:00,59.0,55.0,29.66,South,182,5.0,9.0,87,0.00,,,0.08,,2013-04-08 18:52:00,
2013-04-08 14:02:00,58.0,54.0,29.66,SSE,161,7.0,12.0,87,0.00,,,0.08,,2013-04-08 19:02:00,
2013-04-08 14:12:00,58.0,54.0,29.66,SSE,161,7.0,12.0,87,0.00,,,0.08,,2013-04-08 19:12:00,
2013-04-08 14:23:00,59.0,54.0,29.66,South,171,8.0,15.0,85,0.00,,,0.08,,2013-04-08 19:23:00,
2013-04-08 14:33:00,61.0,56.0,29.65,SSE,160,5.0,11.0,83,0.00,,,0.08,,2013-04-08 19:33:00,
2013-04-08 14:42:00,62.0,56.0,29.65,South,183,6.0,11.0,80,0.00,,,0.08,,2013-04-08 19:42:00,
2013-04-08 14:52:00,62.0,56.0,29.65,South,183,6.0,11.0,80,0.00,,,0.08,,2013-04-08 19:52:00,
2013-04-08 15:02:00,64.0,57.0,29.65,SE,143,3.0,16.0,78,0.00,,,0.08,,2013-04-08 20:02:00,
2013-04-08 15:12:00,64.0,56.0,29.64,South,188,6.0,14.0,76,0.00,,,0.08,,2013-04-08 20:12:00,
2013-04-08 15:22:00,64.0,56.0,29.64,South,188,6.0,14.0,76,0.00,,,0.08,,2013-04-08 20:22:00,
2013-04-08 15:33:00,64.0,56.0,29.64,ESE,118,8.0,13.0,76,0.00,,,0.08,,2013-04-08 20:33:00,
2013-04-08 15:43:00,64.0,56.0,29.64,ESE,118,8.0,13.0,76,0.00,,,0.08,,2013-04-08 20:43:00,
2013-04-08 15:52:00,64.0,56.0,29.64,SSE,155,5.0,10.0,74,0.00,,,0.08,,2013-04-08 20:52:00,
2013-04-08 16:02:00,65.0,56.0,29.63,SSE,162,3.0,7.0,73,0.00,,,0.08,,2013-04-08 21:02:00,
2013-04-08 16:12:00,65.0,56.0,29.63,SSE,151,4.0,13.0,73,0.00,,,0.08,,2013-04-08 21:12:00,
2013-04-08 16:22:00,65.0,56.0,29.63,SSE,151,4.0,13.0,73,0.00,,,0.08,,2013-04-08 21:22:00,
2013-04-08 16:32:00,65.0,57.0,29.63,SSE,158,6.0,11.0,76,0.00,,,0.08,,2013-04-08 21:32:00,
2013-04-08 16:43:00,65.0,57.0,29.63,SSE,158,6.0,11.0,76,0.00,,,0.08,,2013-04-08 21:43:00,
2013-04-08 16:52:00,65.0,56.0,29.63,ESE,111,8.0,14.0,74,0.00,,,0.08,,2013-04-08 21:52:00,
2013-04-08 17:03:00,65.0,56.0,29.64,SSW,201,8.0,16.0,74,0.00,,,0.08,,2013-04-08 22:03:00,
2013-04-08 17:13:00,65.0,56.0,29.64,SSW,201,8.0,16.0,74,0.00,,,0.08,,2013-04-08 22:13:00,
2013-04-08 17:23:00,65.0,56.0,29.64,SSE,168,9.0,16.0,74,0.00,,,0.08,,2013-04-08 22:23:00,
2013-04-08 17:32:00,65.0,56.0,29.64,SSE,168,9.0,16.0,74,0.00,,,0.08,,2013-04-08 22:32:00,
2013-04-08 17:43:00,64.0,56.0,29.63,SSE,148,7.0,16.0,74,0.00,,,0.08,,2013-04-08 22:43:00,
2013-04-08 17:52:00,65.0,56.0,29.63,South,176,4.0,13.0,74,0.00,,,0.08,,2013-04-08 22:52:00,
2013-04-08 18:02:00,65.0,56.0,29.63,SSE,151,5.0,11.0,73,0.00,,,0.08,,2013-04-08 23:02:00,
2013-04-08 18:12:00,65.0,56.0,29.63,SSE,151,5.0,11.0,73,0.00,,,0.08,,2013-04-08 23:12:00,
2013-04-08 18:22:00,65.0,56.0,29.63,SSE,151,5.0,11.0,73,0.00,,,0.08,,2013-04-08 23:22:00,
2013-04-08 18:32:00,65.0,56.0,29.64,East,101,3.0,7.0,73,0.00,,,0.08,,2013-04-08 23:32:00,
2013-04-08 18:42:00,65.0,56.0,29.64,East,101,3.0,7.0,73,0.00,,,0.08,,2013-04-08 23:42:00,
2013-04-08 18:52:00,65.0,56.0,29.64,ESE,108,4.0,8.0,73,0.00,,,0.08,,2013-04-08 23:52:00,
2013-04-08 19:02:00,66.0,57.0,29.65,SE,126,0.0,5.0,74,0.00,,,0.08,,2013-04-09 00:02:00,
2013-04-08 19:12:00,66.0,57.0,29.65,SE,126,0.0,5.0,74,0.00,,,0.08,,2013-04-09 00:12:00,
2013-04-08 19:22:00,65.0,56.0,29.65,East,96,2.0,7.0,74,0.00,,,0.08,,2013-04-09 00:22:00,
2013-04-08 19:32:00,65.0,56.0,29.65,ESE,112,2.0,7.0,74,0.00,,,0.08,,2013-04-09 00:32:00,
2013-04-08 19:42:00,65.0,56.0,29.65,ESE,112,2.0,7.0,74,0.00,,,0.08,,2013-04-09 00:42:00,
2013-04-08 19:52:00,65.0,57.0,29.65,ESE,103,1.0,9.0,75,0.00,,,0.08,,2013-04-09 00:52:00,
2013-04-08 20:02:00,65.0,57.0,29.66,ESE,109,0.0,3.0,76,0.00,,,0.08,,2013-04-09 01:02:00,
2013-04-08 20:12:00,65.0,57.0,29.66,ESE,109,0.0,3.0,76,0.00,,,0.08,,2013-04-09 01:12:00,
2013-04-08 20:22:00,64.0,57.0,29.66,ESE,109,2.0,5.0,77,0.00,,,0.08,,2013-04-09 01:22:00,
2013-04-08 20:33:00,64.0,57.0,29.65,ESE,108,2.0,4.0,78,0.00,,,0.08,,2013-04-09 01:33:00,
2013-04-08 20:42:00,63.0,56.0,29.65,ESE,107,2.0,4.0,79,0.00,,,0.08,,2013-04-09 01:42:00,
2013-04-08 20:52:00,63.0,56.0,29.65,ESE,107,2.0,4.0,79,0.00,,,0.08,,2013-04-09 01:52:00,
2013-04-08 21:02:00,63.0,56.0,29.66,East,101,2.0,7.0,79,0.00,,,0.08,,2013-04-09 02:02:00,
2013-04-08 21:13:00,63.0,56.0,29.66,East,101,2.0,7.0,79,0.00,,,0.08,,2013-04-09 02:13:00,
2013-04-08 21:22:00,63.0,56.0,29.66,East,97,3.0,7.0,79,0.00,,,0.08,,2013-04-09 02:22:00,
2013-04-08 21:32:00,63.0,57.0,29.66,East,101,3.0,7.0,80,0.00,,,0.08,,2013-04-09 02:32:00,
2013-04-08 21:43:00,63.0,57.0,29.67,ESE,109,4.0,8.0,82,0.00,,,0.08,,2013-04-09 02:43:00,
2013-04-08 21:52:00,63.0,57.0,29.67,ESE,109,4.0,8.0,82,0.00,,,0.08,,2013-04-09 02:52:00,
2013-04-08 22:02:00,63.0,57.0,29.67,East,101,4.0,7.0,82,0.00,,,0.08,,2013-04-09 03:02:00,
2013-04-08 22:12:00,63.0,57.0,29.67,East,101,4.0,7.0,82,0.00,,,0.08,,2013-04-09 03:12:00,
2013-04-08 22:21:00,62.0,57.0,29.68,East,82,5.0,8.0,83,0.00,,,0.08,,2013-04-09 03:21:00,
2013-04-08 22:33:00,62.0,57.0,29.68,East,86,3.0,6.0,84,0.00,,,0.08,,2013-04-09 03:33:00,
2013-04-08 22:43:00,62.0,57.0,29.68,East,86,3.0,6.0,84,0.00,,,0.08,,2013-04-09 03:43:00,
2013-04-08 22:52:00,62.0,57.0,29.68,East,91,5.0,10.0,85,0.00,,,0.08,,2013-04-09 03:52:00,
2013-04-08 23:03:00,62.0,57.0,29.65,East,82,6.0,9.0,85,0.00,,,0.08,,2013-04-09 04:03:00,
2013-04-08 23:13:00,62.0,57.0,29.65,East,82,6.0,9.0,85,0.00,,,0.08,,2013-04-09 04:13:00,
2013-04-08 23:23:00,62.0,57.0,29.64,ENE,78,9.0,17.0,85,0.00,,,0.08,,2013-04-09 04:23:00,
2013-04-08 23:32:00,62.0,58.0,29.62,East,90,9.0,17.0,86,0.00,,,0.07,,2013-04-09 04:32:00,
2013-04-08 23:42:00,62.0,58.0,29.62,East,90,9.0,17.0,86,0.00,,,0.07,,2013-04-09 04:42:00,
2013-04-08 23:52:00,62.0,58.0,29.62,East,90,9.0,17.0,86,0.00,,,0.07,,2013-04-09 04:52:00,